Regional Weather Roundup
Issued by NWS

Home | Current Version | Previous Version | Graphics & Text | Print | Product List | Glossary On
Versions: 1 2 3 4 5 6 7 8 9 10 11 12 13 14 15 16 17 18 19 20 21 22 23 24 25 26 27 28 29 30 31 32 33 34 35 36 37 38 39 40 41 42 43 44 45 46 47 48 49 50
000
ASUS43 KLOT 161208
RWRIL

ILLINOIS REGIONAL WEATHER ROUNDUP
NATIONAL WEATHER SERVICE CHICAGO/ROMEOVILLE IL
600 AM CST TUE JAN 16 2018

NOTE: "FAIR" INDICATES FEW OR NO CLOUDS BELOW 12,000 FEET WITH NO
SIGNIFICANT WEATHER AND/OR OBSTRUCTIONS TO VISIBILITY.

* THESE STATIONS ARE NOT UNDER NWS QUALITY CONTROL. THEY ALSO MAY NOT
  REPORT WEATHER SUCH AS PRECIPITATION OR FOG.

ILZ001-002-007-009-015-016-024-161300-
NORTHWEST ILLINOIS

CITY           SKY/WX    TMP DP  RH WIND       PRES   REMARKS
MOLINE         FLURRIES   2  -4  76 W10       30.54R WCI -14
6HR MIN TEMP:   0; 6HR MAX TEMP:   2; 6HR PCP: TRACE;

STERLING*      FLURRIES   4  -1  80 W12       30.49R WCI -12
SAVANNA*       FLURRIES   9   4  80 NW8       30.51R WCI  -4
$$

ILZ003-004-008-010-011-017-018-161300-
NORTH CENTRAL ILLINOIS

CITY           SKY/WX    TMP DP  RH WIND       PRES   REMARKS
ROCKFORD       FLURRIES  12   7  80 W9        30.45R WCI   0
6HR MIN TEMP:   6; 6HR MAX TEMP:  12; 6HR PCP: TRACE;

FREEPORT*      CLOUDY    10   6  83 NW9       30.47R WCI  -3
ROCHELLE*      LGT SNOW   6   3  86 W10       30.45R WCI  -8
DE KALB*       LGT SNOW   8   5  86 W17       30.41R WCI -10
PERU*          FLURRIES   1  -4  78 W13       30.48R WCI -16
$$

ILZ005-006-012>014-019>023-161300-
NORTHEAST ILLINOIS

CITY           SKY/WX    TMP DP  RH WIND       PRES   REMARKS
CHICAGO-OHARE  FLURRIES  13   9  84 W14       30.38R WCI  -2
6HR MIN TEMP:   9; 6HR MAX TEMP:  13; 6HR PCP:  0.01;

CHICAGO-MIDWAY LGT SNOW   8   4  83 W9        30.39R FOG     WCI  -5
6HR MIN TEMP:   6; 6HR MAX TEMP:   8; 6HR PCP: TRACE;

AURORA         LGT SNOW   9   4  80 W17       30.42R WCI  -9
6HR MIN TEMP:   2; 6HR MAX TEMP:   8; 6HR PCP: TRACE;

LANSING*       FLURRIES   4   1  86 W10       30.41R WCI -11
JOLIET*        LGT SNOW   7   3  84 W7        30.44R WCI  -5
WAUKEGAN       LGT SNOW  21  15  78 NW9       30.37R WCI  11
6HR MIN TEMP:  14; 6HR MAX TEMP:  21; 6HR PCP:  0.03;

DUPAGE AIRPORT LGT SNOW   9   7  92 W8        30.40R FOG     WCI  -3
6HR MIN TEMP:   4; 6HR MAX TEMP:   9; 6HR PCP:  0.01;

KANKAKEE*      FLURRIES   1  -5  78 W16       30.47R WCI -19
WHEELING       LGT SNOW  16  12  84 NW9       30.39R FOG     WCI   4
6HR MIN TEMP:  11; 6HR MAX TEMP:  16; 6HR PCP: TRACE;

MORRIS*        CLOUDY     5   0  79 W15       30.44R WCI -13
ROMEOVILLE*    LGT SNOW   6   2  86 W10       30.42R WCI  -9
NORTHERLY ISL    N/A      9   4  80 SW15        N/A  WCI  -8
$$

LMZ740>746-161300-
SOUTHERN LAKE MICHIGAN

STATION/POSITION SKY/WX   TEMP    WIND        PRES    VSBY  WAVE
                          AIR SEA DIR/SP/G                  HT/PER
                          (F)     (DEG/KT/KT) (MB)    (MI)  (FT/S)
HARRISON CRIB              12     270/ 22/ 24   N/A
BURNHAM HARBOR              9     240/ 15/ 19   N/A
CALUMET HARBOR              6     230/  8/ 13 1028.1R
BURNS HARBOR                3     210/ 12/ 14 1029.5R
MICHIGAN CITY                     190/ 12/ 14   N/A
$$

ILZ025>027-034>036-040-047-049-050-058-095>099-161300-
WEST-CENTRAL ILLINOIS

CITY           SKY/WX    TMP DP  RH WIND       PRES   REMARKS
QUINCY         CLEAR     -5 -12  72 W13       30.60R WCI -24
MACOMB*        CLOUDY    -4  -9  76 W15       30.59R WCI -24
JACKSONVILLE*  PTCLDY    -3 -10  73 W10       30.60R WCI -21
PITTSFIELD*    MOCLDY    -2  -9  72 W8G16     30.62R WCI -16
$$

ILZ028>032-037-038-041>044-048-051>054-059>061-161300-
CENTRAL ILLINOIS

CITY           SKY/WX    TMP DP  RH WIND       PRES   REMARKS
PONTIAC        FLURRIES   2  -1  85 W17       30.49R WCI -18
BLOOMINGTON    FLURRIES  -3  -8  79 W16       30.50R WCI -24
DECATUR        FAIR      -3  -9  75 W12       30.55R WCI -21
PEORIA         CLOUDY    -1  -7  75 W12       30.55R WCI -18
6HR MIN TEMP:  -3; 6HR MAX TEMP:  -1;

LACON*         LGT SNOW   2  -4  76 W7        30.52R WCI -11
LINCOLN*       FLURRIES  -1  -7  75 W10G16    30.56R WCI -17
SPRINGFIELD    FAIR      -2  -9  72 W10       30.58R WCI -19
6HR MIN TEMP:  -2; 6HR MAX TEMP:   1;

TAYLORVILLE    FAIR      -4  -9  77 W10       30.58S WCI -21
6HR MIN TEMP:  -4; 6HR MAX TEMP:   1;

$$

ILZ033-039-045-046-055>057-062-063-161300-
EAST-CENTRAL ILLINOIS

CITY           SKY/WX    TMP DP  RH WIND       PRES   REMARKS
CHAMPAIGN      MOCLDY    -5 -10  79 W14       30.51R WCI -25
DANVILLE*      CLOUDY    -3  -8  79 W10       30.47S WCI -20
RANTOUL*       FLURRIES   0  -5  79 W14       30.50R WCI -18
MATTOON        FAIR      -4  -9  79 W8        30.53S WCI -19
PARIS*         FAIR      -4  -8  79 W12       30.54S WCI -22
$$

ILZ079-100>102-161300-
SOUTHWEST ILLINOIS

CITY           SKY/WX    TMP DP  RH WIND       PRES   REMARKS
ALTON          PTCLDY    -1  -6  76 W12       30.64R WCI -18
BELLEVILLE     CLEAR      1  -8  65 W8        30.64R WCI -13
CAHOKIA*       PTCLDY     1  -8  66 W13G18    30.66R WCI -17
SPARTA*        CLEAR      2  -5  73 W7G16     30.65S WCI -11
$$

ILZ064>066-069>071-074>076-080>082-084>086-088>090-092>094-161300-
SOUTH-CENTRAL ILLINOIS

CITY           SKY/WX    TMP DP  RH WIND       PRES   REMARKS
CARBONDALE     FAIR       3  -6  66 W5        30.65R WCI  -6
6HR MIN TEMP:   3; 6HR MAX TEMP:  11;

CAIRO*         FAIR       7  -2  67 NW9       30.66R WCI  -7
EFFINGHAM*     FAIR      -1  -7  75 W10       30.60R WCI -18
MARION         FAIR       3  -6  67 NW3       30.65R
MT. VERNON     FAIR      -1  -6  79 W6        30.63R WCI -13
CENTRALIA*     CLEAR      1  -5  75 CALM      30.61S
SALEM*         FAIR       2  -6  69 W8        30.61R WCI -12
METROPOLIS*    FAIR       8  -2  64 NW7       30.66R WCI  -4
$$

ILZ067-068-072-073-078-083-087-091-161300-
SOUTHEAST ILLINOIS

CITY           SKY/WX    TMP DP  RH WIND       PRES   REMARKS
LAWRENCEVILLE  FAIR      -2  -8  76 W3        30.61R
FLORA*         FAIR       2  -6  70 W10         N/A  WCI -14
FAIRFIELD*     FAIR      -1  -6  81 CALM      30.62R
HARRISBURG*    FAIR       2  -3  77 W5        30.64S WCI  -7
ROBINSON*      FAIR      -4  -8  82 W9        30.60R WCI -20
CARMI*         FAIR       1  -4  77 CALM      30.63R
$$

ABBREVIATIONS USED IN REMARKS
   TC - TEMPERATURE IN CELSIUS
  WCI - WIND CHILL INDEX
   HX - HEAT INDEX
  VSB - VISIBILITY
$$





USA.gov is the U.S. government's official web portal to all federal, state and local government web resources and services.